Station EPTT2 - 8771013 - Eagle Point, TX Image indicating link to RSS feed of recent meteorological observations for station EPTT2


Conditions at EPTT2 as of
(5:30 pm CDT)
2230 GMT on 06/13/2024:
     

Click on the graph icon in the table below to see a time series plot of the last five days of that observation.

5-day plot - Wind Direction Wind Direction (WDIR): SE ( 130 deg true )
5-day plot - Wind Speed Wind Speed (WSPD): 8.9 kts
5-day plot - Wind Gust Wind Gust (GST): 11.1 kts
5-day plot - Atmospheric Pressure Atmospheric Pressure (PRES):29.88 in
5-day plot - Air Temperature Air Temperature (ATMP): 86.7 °F
5-day plot - Water Temperature Water Temperature (WTMP): 90.7 °F
5-day plot - Wind Speed at 10 Meters Wind Speed at 10 meters (WSPD10M): 9.7 kts
5-day plot - Wind Speed at 20 Meters Wind Speed at 20 meters (WSPD20M): 9.7 kts
5-day plot -  Wind Speed, Wind Gust and Atmospheric Pressure Combined plot of Wind Speed, Gust, and Air Pressure
Previous observations
TIME
(CDT)
5-day plot - Wind Direction
WDIR
 
5-day plot - Wind Speed
WSPD
kts
5-day plot - Wind Gust
GST
kts
5-day plot - Wave Height
WVHT
ft
5-day plot - Dominant Wave Period
DPD
sec
5-day plot - Average Wave Period
APD
sec
5-day plot - Mean Wave Direction
MWD
 
5-day plot - Atmospheric Pressure
PRES
in
5-day plot - Pressure Tendency
PTDY
in
5-day plot - Air Temperature
ATMP
°F
5-day plot - Water Temperature
WTMP
°F
5-day plot - Dew Point
DEWP
°F
5-day plot - Salinity
SAL
psu
5-day plot - Visibility
VIS
nmi
5-day plot - Tide (above MLLW)
TIDE
ft
2024-06-13 05:24 pm SE 8.9 11.1----29.88- 86.7 90.7----
2024-06-13 05:18 pm SE 9.9 11.1----29.88- 86.5 90.7----
2024-06-13 05:12 pm SE 9.9 11.1----29.88- 86.5 90.7----
2024-06-13 05:06 pm SE 8.0 11.1----29.88- 86.5 90.7----
2024-06-13 05:00 pm SE 8.0 9.9----29.88-0.03- 90.7----
2024-06-13 04:54 pm SE 8.0 9.9----29.88-- 90.7----
2024-06-13 04:48 pm SE 7.0 8.9----29.89- 87.1 90.7----
2024-06-13 04:42 pm SE 7.0 11.1----29.89- 87.3 90.7----
2024-06-13 04:36 pm SE 7.0 9.9----29.89- 87.3 90.7----
2024-06-13 04:30 pm SE 8.9 8.9----29.89- 86.9 90.7----
2024-06-13 04:24 pm SE 7.0 9.9----29.89- 87.1 90.7----
2024-06-13 04:18 pm SE 8.0 9.9----29.89-- 90.7----
2024-06-13 04:12 pmESE 8.9 9.9----29.89-- 90.7----
2024-06-13 04:06 pmESE 8.0 9.9----29.89-- 90.5----
2024-06-13 04:00 pmESE 8.0 9.9----29.89-0.04 87.1 90.5----
2024-06-13 03:54 pmESE 7.0 8.9----29.89- 86.7 90.5----
2024-06-13 03:48 pmESE 7.0 8.9----29.89- 86.7 90.5----
2024-06-13 03:42 pmESE 7.0 8.9----29.89- 86.7 90.5----
2024-06-13 03:36 pmESE 8.0 8.9----29.89- 86.7 90.3----
2024-06-13 03:30 pmESE 7.0 9.9----29.89- 86.7 90.3----
2024-06-13 03:24 pmESE 7.0 8.9----29.90- 86.7 90.3----
2024-06-13 03:18 pm SE 7.0 8.9----29.90-- 90.1----
2024-06-13 03:12 pmESE 6.0 8.0----29.90-- 90.1----
2024-06-13 03:06 pmESE 6.0 8.9----29.90-- 90.1----
2024-06-13 03:00 pm SE 6.0 9.9----29.91-0.03 86.7 90.1----
2024-06-13 02:54 pmESE 7.0 8.9----29.91- 86.4 90.1----
2024-06-13 02:48 pmESE 8.0 8.9----29.91- 86.4 90.1----
2024-06-13 02:42 pmESE 7.0 8.9----29.91- 86.5 90.0----
2024-06-13 02:36 pmESE 7.0 8.9----29.91- 86.4 90.0----
2024-06-13 02:30 pmESE 8.0 9.9----29.91-- 90.0----
2024-06-13 02:24 pm E 8.0 8.9----29.91-- 89.8----
2024-06-13 02:18 pm E 8.0 8.9----29.91- 85.6 89.8----
2024-06-13 02:12 pmESE 8.0 9.9----29.91- 86.0 89.8----
2024-06-13 02:06 pmESE 8.0 11.1----29.92- 85.6 89.6----
2024-06-13 02:00 pmESE 8.9 9.9----29.92- 85.6 89.6----
2024-06-13 01:54 pmESE 8.9 11.1----29.92- 85.8 89.4----
2024-06-13 01:48 pm E 8.0 8.9----29.92-- 89.4----
2024-06-13 01:42 pm E 7.0 8.9----29.92-- 89.4----
2024-06-13 01:36 pm E 6.0 8.0----29.92-- 89.4----
2024-06-13 01:30 pmESE 6.0 8.0----29.93-- 89.2----
2024-06-13 01:24 pm E 7.0 8.0----29.93-- 89.2----
2024-06-13 01:18 pmESE 8.0 8.9----29.93- 85.5 89.1----
2024-06-13 01:12 pm E 8.0 9.9----29.93- 85.1 89.1----
2024-06-13 01:06 pm E 8.0 9.9----29.93- 85.1 88.9----
2024-06-13 01:00 pm E 8.0 9.9----29.93+0.00- 88.9----
2024-06-13 12:54 pmESE 8.9 9.9----29.93-- 88.9----
2024-06-13 12:48 pmESE 8.0 9.9----29.94-- 88.7----
2024-06-13 12:42 pm E 7.0 9.9----29.94-- 88.7----
2024-06-13 12:36 pm E 8.0 8.9----29.94-- 88.7----
2024-06-13 12:30 pm--------- 85.3 88.7----
2024-06-13 12:24 pm--------- 85.3 88.5----
2024-06-13 12:18 pm E 8.0 11.1----29.94- 84.6 88.5----
2024-06-13 12:12 pm E 8.9 9.9----29.94- 84.7 88.5----
2024-06-13 12:06 pm E 8.9 9.9----29.94- 84.9 88.3----
2024-06-13 12:00 pm-------29.94+0.01 84.9 88.3----
2024-06-13 11:54 am-------29.94- 84.7 88.3----
2024-06-13 11:48 am E 11.1 14.0----29.94- 84.6-----
2024-06-13 11:42 am E 12.0 13.0----29.94- 84.4-----
2024-06-13 11:36 am E 11.1 13.0----29.94- 84.2-----
2024-06-13 11:30 am-------29.94- 84.6 88.0----
2024-06-13 11:24 am-------29.94- 85.1 88.0----
2024-06-13 11:18 am E 7.0 8.9----29.94-- 88.0----
2024-06-13 11:12 amENE 7.0 8.9----29.94-- 88.0----
2024-06-13 11:06 am E 8.0 8.9----29.94-- 88.0----
2024-06-13 11:00 amENE 7.0 8.9------ 84.6 88.0----
2024-06-13 10:54 am NE 8.0 8.9------ 84.4 87.8----
2024-06-13 10:48 am NE 8.0 8.9----29.93-- 87.8----
2024-06-13 10:42 amENE 7.0 8.9----29.93-- 87.8----
2024-06-13 10:36 amENE 8.0 9.9----29.93-- 87.8----
2024-06-13 10:30 amENE 8.0 9.9----29.93-- 87.8----
2024-06-13 10:24 amENE 8.9 11.1----29.93-- 87.8----
2024-06-13 10:18 am NE 8.9 11.1----29.93- 83.7 87.8----
2024-06-13 10:12 amENE 8.9 9.9----29.93- 83.5 87.8----
2024-06-13 10:06 amENE 8.9 9.9----29.93- 83.3 87.8----
2024-06-13 10:00 amENE 8.9 9.9----29.93+0.04 83.5 87.6----
2024-06-13 09:54 amENE 8.9 9.9----29.93- 83.3 87.6----
2024-06-13 09:48 am NE 8.9 9.9----29.93- 83.3 87.6----
2024-06-13 09:42 amENE 8.9 9.9----29.93- 83.3 87.6----
2024-06-13 09:36 am NE 8.0 9.9----29.93- 83.3 87.6----
2024-06-13 09:30 amENE 8.9 9.9----29.93-- 87.6----
2024-06-13 09:24 amENE 8.9 9.9----29.93-- 87.4----
2024-06-13 09:18 amENE 8.0 9.9----29.93- 83.1 87.4----
2024-06-13 09:12 am E 8.9 9.9----29.93- 83.1 87.4----
2024-06-13 09:06 amENE 8.0 9.9----29.93- 83.3 87.4----
2024-06-13 09:00 amENE 8.0 8.9----29.93+0.05 83.5 87.4----
2024-06-13 08:54 amENE 8.0 9.9----29.93- 83.1 87.4----
2024-06-13 08:48 amENE 8.9 9.9----29.92- 83.3 87.3----
2024-06-13 08:42 amENE 8.0 9.9----29.92- 83.1 87.3----
2024-06-13 08:36 am E 8.9 9.9----29.92- 82.9 87.3----
2024-06-13 08:30 amENE 8.9 9.9----29.92- 82.9 87.1----
2024-06-13 08:24 am E 8.9 9.9----29.92- 82.6 87.1----
2024-06-13 08:18 amENE 9.9 12.0----29.91- 82.4 87.1----
2024-06-13 08:12 amENE 8.9 11.1----29.91- 82.8 87.1----
2024-06-13 08:06 amENE 9.9 11.1----29.91- 82.4 86.9----
2024-06-13 08:00 amENE 8.9 9.9----29.91+0.04 83.1 86.9----
2024-06-13 07:54 amENE 8.9 12.0----29.91- 83.1 86.9----
2024-06-13 07:48 amENE 8.9 9.9----29.91- 83.7 86.9----
2024-06-13 07:42 amENE 8.9 12.0----29.91- 82.9 86.9----
2024-06-13 07:36 amENE 11.1 12.0----29.90- 82.6 86.9----
2024-06-13 07:30 amENE 11.1 12.0----29.90- 82.9 86.9----
2024-06-13 07:24 amENE 11.1 12.0----29.90- 82.8 86.9----
2024-06-13 07:18 am NE 12.0 13.0----29.90- 82.2 86.9----
2024-06-13 07:12 am NE 13.0 14.0----29.90- 81.9 86.9----
2024-06-13 07:06 amENE 13.0 15.0----29.90- 82.2 86.9----
2024-06-13 07:00 am NE 12.0 13.0----29.90+0.04 82.6 86.9----
2024-06-13 06:54 am NE 11.1 12.0----29.90- 82.6 86.9----
2024-06-13 06:48 am NE 9.9 12.0----29.89-- 87.1----
2024-06-13 06:42 am NE 9.9 11.1----29.89-- 87.1----
2024-06-13 06:36 am NE 8.9 9.9----29.89-- 87.1----
2024-06-13 06:30 am NE 8.0 8.0----29.89- 83.8 87.1----
2024-06-13 06:24 am NE 7.0 8.9----29.89- 83.8 87.1----
2024-06-13 06:18 am NE 6.0 8.0----29.88- 83.8 87.1----
2024-06-13 06:12 am NE 6.0 8.0----29.88- 83.7 87.1----
2024-06-13 06:06 am NE 6.0 8.9----29.88- 83.7 87.1----
2024-06-13 06:00 am NE 7.0 8.0----29.88+0.02 83.5 87.1----
2024-06-13 05:54 am NE 7.0 8.0----29.88- 83.5 87.1----
2024-06-13 05:48 am NE 6.0 7.0----29.88- 83.5 87.1----
2024-06-13 05:42 am NE 6.0 7.0----29.87- 83.5 87.1----
2024-06-13 05:36 am NE 6.0 7.0----29.87- 83.5 87.1----
2024-06-13 05:30 am NE 6.0 7.0----29.87- 83.3 87.1----
2024-06-13 05:24 am NE 6.0 7.0----29.87- 83.5 87.1----
2024-06-13 05:18 am NE 6.0 7.0----29.87- 83.3 87.3----
2024-06-13 05:12 am NE 6.0 7.0----29.87- 83.3 87.3----
2024-06-13 05:06 amENE 5.1 7.0----29.87- 83.1 87.3----
2024-06-13 05:00 am NE 6.0 7.0----29.86-0.01 83.3 87.3----
2024-06-13 04:54 amENE 7.0 8.0----29.86- 83.1 87.3----
2024-06-13 04:48 amENE 6.0 7.0----29.86- 83.1 87.3----
2024-06-13 04:42 amENE 7.0 8.0----29.86- 83.1 87.3----
2024-06-13 04:36 amENE 6.0 8.0----29.85- 82.9 87.3----
2024-06-13 04:30 amENE 8.0 8.0----29.85- 82.8 87.3----
2024-06-13 04:24 amENE 6.0 7.0----29.85- 83.1 87.3----
2024-06-13 04:18 amENE 6.0 7.0----29.85- 82.9 87.3----
2024-06-13 04:12 amENE 7.0 8.0----29.85- 82.9 87.3----
2024-06-13 04:06 amENE 5.1 6.0----29.85- 83.1 87.4----
2024-06-13 04:00 amENE 5.1 7.0----29.85-0.04 82.9 87.4----
2024-06-13 03:54 amENE 6.0 7.0----29.85- 82.9 87.4----
2024-06-13 03:48 amENE 6.0 7.0----29.85- 82.8 87.4----
2024-06-13 03:42 amENE 7.0 9.9----29.85- 82.6 87.4----
2024-06-13 03:36 amENE 8.0 8.9----29.85- 82.9 87.4----
2024-06-13 03:30 amENE 8.0 8.9----29.85- 82.9 87.4----
2024-06-13 03:24 amENE 7.0 8.9----29.85- 83.8 87.4----
2024-06-13 03:18 amENE 7.0 8.0----29.85- 83.8 87.4----
2024-06-13 03:12 amENE 5.1 6.0----29.85- 84.2 87.4----
2024-06-13 03:06 am E 5.1 6.0----29.85- 84.2 87.4----
2024-06-13 03:00 am E 4.1 5.1----29.85-0.04 84.4 87.4----
2024-06-13 02:54 am E 5.1 6.0----29.86- 84.4 87.6----
2024-06-13 02:48 am E 4.1 6.0----29.86- 84.6 87.6----
2024-06-13 02:42 am E 5.1 6.0----29.86- 84.4 87.6----
2024-06-13 02:36 am E 5.1 5.1----29.86- 84.4 87.6----
2024-06-13 02:30 am E 4.1 6.0----29.87- 84.7 87.6----
2024-06-13 02:24 am E 4.1 5.1----29.87- 84.7 87.8----
2024-06-13 02:18 am E 5.1 6.0----29.87- 84.7 87.8----
2024-06-13 02:12 am E 4.1 5.1----29.87- 84.7 87.8----
2024-06-13 02:06 am E 5.1 6.0----29.87- 84.7 87.8----
2024-06-13 02:00 am E 5.1 5.1----29.87-0.02 84.9 87.8----
2024-06-13 01:54 am E 4.1 6.0----29.87- 85.1 87.8----
2024-06-13 01:48 am E 4.1 5.1----29.87-- 87.8----
2024-06-13 01:42 am E 4.1 5.1----29.88-- 88.0----
2024-06-13 01:36 amESE 4.1 5.1----29.88-- 88.0----
2024-06-13 01:30 am E 2.9 5.1----29.88- 85.1 88.0----
2024-06-13 01:24 am E 4.1 6.0----29.88- 85.3 88.0----
2024-06-13 01:18 am E 4.1 5.1----29.88- 85.3 88.0----
2024-06-13 01:12 am E 4.1 4.1----29.88- 85.3 88.0----
2024-06-13 01:06 amENE 4.1 5.1----29.88- 85.1 88.0----
2024-06-13 01:00 am E 4.1 5.1----29.89+0.00------
2024-06-13 12:54 am E 4.1 5.1----29.89-------
2024-06-13 12:48 am-------29.89- 85.3 88.0----
2024-06-13 12:42 am-------29.89- 85.3 88.0----
2024-06-13 12:36 am-------29.89- 85.3 88.0----
2024-06-13 12:30 am E 4.1 5.1----29.89- 85.3 88.2----
2024-06-13 12:24 am E 2.9 4.1----29.89- 85.5 88.2----
2024-06-13 12:18 am E 2.9 4.1----29.90- 85.5 88.0----
2024-06-13 12:12 am E 4.1 5.1----29.90- 85.5 88.0----
2024-06-13 12:06 am E 4.1 5.1----29.90- 85.5 88.2----
2024-06-13 12:00 am-------29.90- 85.5 88.2----
2024-06-12 11:54 pm-------29.90- 85.5 88.2----
2024-06-12 11:48 pmESE 4.1 5.1----29.90- 85.3 88.2----
2024-06-12 11:42 pmESE 4.1 5.1----29.90- 85.5 88.2----
2024-06-12 11:36 pmESE 4.1 5.1----29.90- 85.5 88.2----
2024-06-12 11:30 pm E 5.1 6.0----29.89- 85.3 88.2----
2024-06-12 11:24 pmESE 4.1 5.1----29.89- 85.5 88.2----
2024-06-12 11:18 pm E 5.1 6.0----29.90- 85.5 88.2----
2024-06-12 11:12 pm E 6.0 6.0----29.90- 85.3 88.2----
2024-06-12 11:06 pmESE 5.1 6.0----29.90- 85.3 88.2----
2024-06-12 11:00 pmESE 5.1 6.0----29.90- 85.3 88.2----
2024-06-12 10:54 pmESE 5.1 6.0----29.90- 85.1 88.2----
2024-06-12 10:48 pmESE 5.1 7.0----29.90-- 88.2----
2024-06-12 10:42 pmESE 6.0 7.0----29.89-- 88.2----
2024-06-12 10:36 pmESE 5.1 6.0----29.89-- 88.2----
2024-06-12 10:30 pm E 5.1 6.0------------
2024-06-12 10:24 pm E 2.9 5.1------------
2024-06-12 10:18 pm E 4.1 5.1----29.89-- 88.2----
2024-06-12 10:12 pm E 2.9 4.1----29.88-- 88.2----
2024-06-12 10:06 pmNNE 1.0 2.9----29.88-- 88.2----
2024-06-12 10:00 pmNNW 1.0 1.9----29.88+0.00 83.7 88.2----
2024-06-12 09:54 pm N 1.9 1.9----29.88- 83.7 88.2----
2024-06-12 09:48 pm N 1.9 1.9----29.88- 83.7 88.2----
2024-06-12 09:42 pmNNW 1.9 1.9----29.88- 83.7 88.2----
2024-06-12 09:36 pm N 1.9 2.9----29.88- 83.5 88.2----
2024-06-12 09:30 pmNNW 1.9 2.9----29.88- 83.3 88.3----
2024-06-12 09:24 pm NW 1.9 1.9----29.88- 83.3 88.3----
2024-06-12 09:18 pmNNW 1.9 2.9----29.88- 83.1-----
2024-06-12 09:12 pmNNW 1.9 2.9----29.88- 83.1-----
2024-06-12 09:06 pmNNW 1.9 4.1----29.88- 83.1-----
2024-06-12 09:00 pmWNW 1.9 2.9------------
2024-06-12 08:54 pmNNW 1.9 2.9------------
2024-06-12 08:48 pm NW 2.9 4.1----29.88-- 88.5----
2024-06-12 08:42 pmNNW 2.9 4.1----29.88-- 88.5----
2024-06-12 08:36 pm NW 2.9 4.1----29.88-- 88.7----
2024-06-12 08:30 pm NW 2.9 5.1----29.88- 82.9 88.5----
2024-06-12 08:24 pmWNW 2.9 5.1----29.88- 82.9 88.5----
2024-06-12 08:18 pm NW 2.9 5.1----29.88-- 88.7----
2024-06-12 08:12 pm NW 2.9 4.1----29.88-- 88.7----
2024-06-12 08:06 pm W 1.9 5.1----29.88-- 88.7----
2024-06-12 08:00 pm SE 4.1 6.0------- 88.9----
2024-06-12 07:54 pmSSE 2.9 5.1------- 88.9----
2024-06-12 07:48 pmSSE 5.1 5.1----29.88-- 88.9----
2024-06-12 07:42 pm SE 4.1 5.1----29.88-- 88.9----
2024-06-12 07:36 pmESE 2.9 4.1----29.88-- 89.1----
2024-06-12 07:30 pmESE 4.1 5.1----29.88-- 89.1----
2024-06-12 07:24 pm E 4.1 6.0----29.88-- 89.1----
2024-06-12 07:18 pm E 4.1 5.1----29.88- 85.3 89.1----
2024-06-12 07:12 pmESE 4.1 6.0----29.88- 85.5 89.1----
2024-06-12 07:06 pmESE 5.1 6.0----29.88- 85.3 89.1----
2024-06-12 07:00 pmESE 5.1 6.0----29.88-0.01- 89.1----
2024-06-12 06:54 pmESE 5.1 7.0----29.88-- 89.2----
2024-06-12 06:48 pmESE 5.1 6.0----29.88-- 89.4----
2024-06-12 06:42 pmESE 5.1 6.0----29.88-- 89.6----
2024-06-12 06:36 pm E 6.0 8.9----29.88-- 89.6----
2024-06-12 06:30 pmESE 7.0 8.0----29.88- 85.5 89.6----
2024-06-12 06:24 pmESE 7.0 8.9----29.88- 85.3 89.8----
2024-06-12 06:00 pm E 6.0 7.0----29.88-0.03- 90.1----
2024-06-12 05:54 pmESE 6.0 7.0----29.88-- 90.3----